Starlink 35703

operational
NORAD ID: 66970 Int'l Des: 2025-288 Owner: SPXS Country: US Constellation: starlink
LEOCIRCULAR

Starlink 35703について

説明を読み込み中...

リアルタイム位置

3D地球を読み込み中...

次回通過

高度履歴

Altitude vs Time

uPlot chart will show altitude changes over time

軌道要素

1 66970C 25288M 25346.10326389 -.01078300 00000+0 -18170-2 0 3460
2 66970 43.0037 171.8046 0001791 273.6870 153.3318 16.02819694 16
Epoch: Dec 12, 2025 • Age: 57 hours

現在のステータス

高度 281.3 km
速度 7.74 km/s
衛星直下点 -11.64°S, 132.87°E
打ち上げ日 Dec 8, 2025
運用期間 5 days
タイプ internet

技術仕様

分類 Payload
質量 575.00 kg
乾燥質量 530.00 kg
総質量 575.00 kg
長さ 0.30 m
直径 4.10 m
スパン 29.00 m
形状 Box + pan
製造者 SPXS
バスタイプ Starlink V2MO
フェーズステータス In Orbit
所有者/国 SPXS/US

大規模コンステレーション

Loading constellations...